Location: Unspecified
(52.4292°N, 19.3359°E)
Time: 16:07:39
(UTC+01:00)

A-11 Canister half - Pass Details

Date: 22 October 2025
Orbit: 1526 x 1682 km, 47.3° (Epoch: 13 November)

Event Time Altitude Azimuth Distance (km) Brightness Sun altitude
Exits shadow 04:52:23 37° 252° (WSW) 2,224 9.3 -23.1°
Maximum altitude 04:56:25 64° 186° (S) 1,662 9.0 -22.5°
Drops below altitude 10° 05:05:35 10° 108° (ESE) 3,709 11.9 -21.2°
Sets 05:08:40 0° 105° (ESE) 4,703 12.7 -20.7°
